EW6606 Weather Reports


time (UTC)temp
C
wind
direction
speed
KPH
gust
KPH
rain 1hr
cm
rain 24hr
cm
rain mn
cm
humidity
%
barometer
mb
20260510202404 23 164 0.0 3.2 0.00 0.03 0.03 71 1017.1
20260510201901 23 167 3.2 4.8 0.00 0.03 0.03 71 1017.2
20260510201358 23 113 0.0 0.0 0.00 0.03 0.03 73 1017.2
20260510200855 23 113 0.0 3.2 0.00 0.03 0.03 72 1017.2
20260510200354 23 111 1.6 3.2 0.00 0.03 0.03 71 1017.3
20260510195849 24 122 0.0 3.2 0.00 0.03 0.03 71 1017.2
20260510195346 25 116 6.4 9.7 0.00 0.03 0.03 69 1017.2
20260510194840 25 128 3.2 6.4 0.00 0.03 0.03 70 1017.3
20260510194337 24 275 3.2 9.7 0.00 0.03 0.03 72 1017.3
20260510193827 23 117 0.0 6.4 0.00 0.03 0.03 72 1017.2
20260510193322 23 127 3.2 6.4 0.00 0.03 0.03 70 1017.3
20260510192818 23 253 1.6 3.2 0.00 0.03 0.03 73 1017.5
20260510192313 23 179 1.6 3.2 0.00 0.03 0.03 73 1017.4
20260510191810 23 123 1.6 4.8 0.00 0.03 0.03 74 1017.3
20260510191306 23 190 3.2 6.4 0.00 0.03 0.03 72 1017.4
20260510190804 23 119 0.0 4.8 0.00 0.03 0.03 73 1017.5
20260510190301 23 246 0.0 4.8 0.00 0.03 0.03 77 1017.4
20260510185757 23 155 1.6 4.8 0.00 0.03 0.03 75 1017.6
20260510185255 23 117 3.2 4.8 0.00 0.03 0.03 74 1017.5
20260510184752 23 52 0.0 3.2 0.00 0.03 0.03 75 1017.7
20260510184248 23 122 0.0 4.8 0.00 0.03 0.03 76 1017.5
20260510183743 23 44 3.2 4.8 0.00 0.03 0.03 76 1017.8
20260510183238 23 70 3.2 8.0 0.00 0.03 0.03 74 1017.8
20260510182735 22 26 1.6 4.8 0.00 0.03 0.03 78 1017.9
20260510182231 22 204 3.2 4.8 0.00 0.03 0.03 81 1018.0
20260510181728 22 120 1.6 6.4 0.00 0.03 0.03 81 1017.9
20260510181225 22 155 3.2 6.4 0.00 0.03 0.03 81 1018.1
20260510180721 22 123 0.0 8.0 0.00 0.03 0.03 81 1018.1
20260510180219 22 126 4.8 9.7 0.00 0.03 0.03 81 1018.1
20260510175714 22 201 1.6 3.2 0.00 0.03 0.03 82 1017.9
20260510175211 22 171 1.6 3.2 0.00 0.03 0.03 84 1018.2
20260510174708 22 220 0.0 6.4 0.00 0.03 0.03 84 1018.3
20260510174205 21 1 3.2 4.8 0.00 0.03 0.03 87 1018.4
20260510173701 21 40 0.0 3.2 0.00 0.03 0.03 88 1018.4
20260510173157 21 170 3.2 4.8 0.00 0.03 0.03 88 1018.3
20260510172652 21 87 3.2 3.2 0.00 0.03 0.03 90 1018.5
20260510172149 21 344 3.2 3.2 0.00 0.03 0.03 89 1018.5
20260510171646 21 286 3.2 3.2 0.00 0.03 0.03 90 1018.7
20260510171143 20 70 3.2 3.2 0.00 0.03 0.03 91 1018.5
20260510170639 20 41 1.6 3.2 0.00 0.03 0.03 91 1018.7
20260510170136 20 47 1.6 3.2 0.00 0.03 0.03 92 1018.8
20260510165632 20 299 0.0 3.2 0.00 0.03 0.03 92 1018.9
20260510165128 20 65 1.6 3.2 0.00 0.03 0.03 92 1018.8
20260510164626 20 37 0.0 3.2 0.00 0.03 0.03 93 1018.9
20260510164122 20 59 0.0 1.6 0.00 0.03 0.03 93 1018.9
20260510163617 20 348 0.0 3.2 0.00 0.03 0.03 93 1018.9
20260510163114 20 37 1.6 3.2 0.00 0.03 0.03 94 1019.0
20260510162614 19 58 0.0 3.2 0.00 0.03 0.03 94 1018.8
20260510162110 19 55 0.0 3.2 0.00 0.03 0.03 94 1018.6
20260510161606 19 109 0.0 3.2 0.00 0.03 0.03 94 1018.6
20260510161104 19 55 0.0 1.6 0.00 0.03 0.03 94 1018.9
20260510160600 19 66 0.0 1.6 0.00 0.03 0.03 94 1018.9
20260510160100 18 154 0.0 3.2 0.00 0.03 0.03 94 1018.9
20260510155557 18 165 3.2 3.2 0.00 0.03 0.03 95 1018.8
20260510155053 18 153 1.6 3.2 0.00 0.03 0.03 95 1018.8
20260510154548 18 172 0.0 0.0 0.00 0.03 0.03 95 1018.8
20260510154044 18 135 0.0 3.2 0.00 0.03 0.03 95 1018.8
20260510153539 18 164 0.0 1.6 0.00 0.03 0.03 95 1018.9
20260510153036 18 9 0.0 0.0 0.00 0.03 0.03 96 1018.9
20260510152533 18 9 0.0 0.0 0.00 0.03 0.03 95 1018.8
20260510152029 18 15 0.0 3.2 0.00 0.03 0.03 96 1019.0
20260510151526 18 89 0.0 3.2 0.00 0.03 0.03 96 1018.8
20260510151024 18 96 1.6 1.6 0.00 0.03 0.03 96 1018.7
20260510150518 18 161 1.6 4.8 0.00 0.03 0.03 96 1018.7
20260510150015 18 130 0.0 3.2 0.00 0.03 0.03 96 1018.7
20260510145512 18 153 0.0 3.2 0.00 0.03 0.03 96 1018.6
20260510145008 18 157 0.0 0.0 0.00 0.03 0.03 96 1018.7
20260510144506 18 119 0.0 1.6 0.00 0.03 0.03 96 1018.7
20260510144002 18 49 0.0 1.6 0.00 0.03 0.03 96 1018.7
20260510143457 18 62 0.0 1.6 0.00 0.03 0.03 96 1018.7
20260510142954 18 50 0.0 1.6 0.00 0.03 0.03 96 1018.6
20260510142451 18 13 0.0 1.6 0.00 0.03 0.03 96 1018.5
20260510141947 18 41 1.6 3.2 0.00 0.03 0.03 96 1018.6
20260510141444 18 66 0.0 1.6 0.00 0.03 0.03 96 1018.7
20260510140941 17 51 0.0 3.2 0.00 0.03 0.03 96 1018.7
20260510140437 17 86 0.0 3.2 0.00 0.03 0.03 96 1018.7
20260510135936 17 125 1.6 3.2 0.00 0.03 0.03 96 1018.4
20260510135432 17 137 0.0 3.2 0.00 0.03 0.03 96 1018.5
20260510134930 17 142 0.0 1.6 0.00 0.03 0.03 96 1018.2
20260510134426 17 138 1.6 4.8 0.00 0.03 0.03 96 1018.2
20260510133922 17 124 0.0 3.2 0.00 0.03 0.03 96 1018.5
20260510133419 17 103 1.6 3.2 0.00 0.03 0.03 96 1018.2
20260510132914 17 104 1.6 3.2 0.00 0.03 0.03 96 1018.5
20260510132412 17 113 3.2 3.2 0.00 0.03 0.03 96 1018.4
20260510131909 17 122 0.0 3.2 0.00 0.03 0.03 96 1018.6
20260510131407 17 117 0.0 1.6 0.00 0.03 0.03 96 1018.4
20260510130903 17 108 1.6 3.2 0.00 0.03 0.03 96 1018.3
20260510130401 17 89 0.0 3.2 0.00 0.03 0.03 96 1018.1
20260510125857 17 105 1.6 3.2 0.00 0.03 0.03 96 1018.2
20260510125353 17 100 1.6 3.2 0.00 0.03 0.03 96 1018.0
20260510124850 17 100 1.6 3.2 0.00 0.03 0.03 96 1017.9
20260510124347 17 144 0.0 3.2 0.00 0.03 0.03 96 1018.1
20260510123842 17 133 0.0 3.2 0.00 0.03 0.03 96 1018.0
20260510123338 17 89 1.6 3.2 0.00 0.03 0.03 96 1017.9
20260510122834 16 103 0.0 3.2 0.00 0.03 0.03 96 1017.6
20260510122330 16 115 3.2 4.8 0.00 0.03 0.03 96 1017.6
20260510121827 16 114 0.0 3.2 0.00 0.03 0.03 96 1017.6
20260510121325 16 104 0.0 3.2 0.00 0.03 0.03 96 1017.6
20260510120822 16 147 0.0 3.2 0.00 0.03 0.03 96 1017.5
20260510120319 16 144 1.6 3.2 0.00 0.03 0.03 96 1017.5
20260510115814 16 146 0.0 3.2 0.05 0.03 0.03 96 1017.4
20260510115312 16 126 1.6 3.2 0.05 0.03 0.03 96 1017.2
20260510114813 16 132 1.6 3.2 0.00 0.00 0.00 96 1017.3
20260510114310 16 144 0.0 1.6 0.00 0.00 0.00 96 1017.3
20260510113805 16 151 3.2 3.2 0.00 0.00 0.00 96 1017.2
20260510113302 16 140 0.0 3.2 0.00 0.00 0.00 96 1017.2
20260510112758 16 140 3.2 3.2 0.00 0.00 0.00 96 1016.9
20260510112256 16 240 0.0 1.6 0.00 0.00 0.00 96 1016.6
20260510111751 16 42 0.0 3.2 0.00 0.00 0.00 95 1016.6
20260510111248 16 142 0.0 0.0 0.00 0.00 0.00 95 1016.4
20260510110748 16 124 0.0 3.2 0.00 0.00 0.00 95 1016.2
20260510110246 16 89 0.0 0.0 0.00 0.00 0.00 95 1016.4
20260510105746 16 113 0.0 3.2 0.00 0.00 0.00 95 1016.2
20260510105241 16 89 0.0 1.6 0.00 0.00 0.00 95 1016.0
20260510104737 16 104 0.0 1.6 0.00 0.00 0.00 95 1016.2
20260510104235 16 63 0.0 0.0 0.00 0.00 0.00 95 1016.0
20260510103732 16 160 0.0 1.6 0.00 0.00 0.00 95 1015.8
20260510103229 16 89 0.0 1.6 0.00 0.00 0.00 95 1015.8
20260510102728 16 122 0.0 3.2 0.00 0.00 0.00 95 1015.6
20260510102224 16 113 0.0 3.2 0.00 0.00 0.00 95 1015.6
20260510101722 16 108 1.6 3.2 0.00 0.00 0.00 95 1015.7
20260510101220 16 106 0.0 3.2 0.00 0.00 0.00 95 1015.6
20260510100716 16 92 0.0 1.6 0.00 0.00 0.00 95 1015.6
20260510100214 16 95 1.6 1.6 0.00 0.00 0.00 95 1015.6
20260510095704 16 104 1.6 1.6 0.00 0.00 0.00 95 1015.4
20260510095159 15 71 0.0 3.2 0.00 0.00 0.00 95 1015.5
20260510094657 15 103 1.6 3.2 0.00 0.00 0.00 95 1015.2
20260510094154 15 129 0.0 1.6 0.00 0.00 0.00 95 1015.2
20260510093650 15 85 0.0 1.6 0.00 0.00 0.00 95 1015.2
20260510093148 15 104 0.0 1.6 0.00 0.00 0.00 95 1015.1
20260510092644 15 73 0.0 1.6 0.00 0.00 0.00 95 1015.0
20260510092139 15 69 0.0 3.2 0.00 0.00 0.00 95 1014.9
20260510091635 15 81 0.0 3.2 0.00 0.00 0.00 94 1014.8
20260510091131 16 55 0.0 3.2 0.00 0.00 0.00 94 1015.0
20260510090628 16 89 0.0 3.2 0.00 0.00 0.00 94 1014.6
20260510090124 16 89 0.0 1.6 0.00 0.00 0.00 94 1014.5
20260510085614 16 73 1.6 3.2 0.00 0.00 0.00 94 1014.8
20260510085110 16 47 1.6 3.2 0.00 0.00 0.00 94 1014.5
20260510084607 16 69 0.0 3.2 0.00 0.00 0.00 94 1014.3
20260510084103 16 93 1.6 3.2 0.00 0.00 0.00 94 1014.5
20260510083600 16 94 1.6 3.2 0.00 0.00 0.00 94 1014.1
20260510083056 16 93 1.6 3.2 0.00 0.00 0.00 94 1014.1
20260510082553 16 68 1.6 3.2 0.00 0.00 0.00 94 1014.2
20260510082048 16 89 0.0 3.2 0.05 0.00 0.00 94 1014.1
20260510081543 16 114 0.0 3.2 0.00 0.00 0.00 94 1014.0
20260510081039 16 117 0.0 3.2 0.00 0.00 0.00 94 1014.2
20260510080538 16 126 1.6 3.2 0.00 0.00 0.00 94 1014.0
20260510080036 16 98 1.6 3.2 0.00 0.00 0.00 94 1014.3
20260510075533 16 89 0.0 3.2 0.00 0.00 0.00 94 1014.3
20260510075030 16 88 1.6 3.2 0.00 0.00 0.00 94 1014.1
20260510074528 16 89 0.0 3.2 0.00 0.00 0.00 94 1014.2
20260510074023 16 103 1.6 3.2 0.00 0.00 0.00 94 1014.2
20260510073519 16 117 0.0 1.6 0.00 0.00 0.00 94 1014.2
20260510073016 16 104 1.6 3.2 0.00 0.00 0.00 94 1014.1
20260510072513 16 89 0.0 1.6 0.00 0.00 0.00 94 1014.2
20260510072008 16 109 0.0 1.6 0.00 0.00 0.00 94 1014.1
20260510071504 16 62 0.0 1.6 0.00 0.00 0.00 94 1014.1
20260510071003 16 93 0.0 1.6 0.00 0.00 0.00 94 1014.3
20260510070459 16 101 1.6 3.2 0.00 0.00 0.00 94 1014.2
20260510065955 16 78 0.0 1.6 0.00 0.00 0.00 94 1014.2
20260510065453 16 66 0.0 1.6 0.00 0.00 0.00 94 1014.5
20260510064948 16 95 0.0 1.6 0.00 0.00 0.00 94 1014.3
20260510064446 16 120 1.6 3.2 0.00 0.00 0.00 94 1014.3
20260510063942 16 99 0.0 1.6 0.00 0.00 0.00 94 1014.4
20260510063438 16 89 0.0 1.6 0.00 0.00 0.00 94 1014.3
20260510062936 16 89 0.0 1.6 0.00 0.00 0.00 94 1014.6
20260510062431 16 103 0.0 3.2 0.00 0.00 0.00 93 1014.5
20260510061927 17 114 3.2 3.2 0.00 0.00 0.00 93 1014.4
20260510061424 17 128 1.6 3.2 0.00 0.00 0.00 93 1014.8
20260510060920 17 111 3.2 3.2 0.00 0.00 0.00 93 1014.8
20260510060417 17 113 0.0 3.2 0.00 0.00 0.00 93 1014.8
20260510055913 17 110 1.6 3.2 0.00 0.00 0.00 93 1014.8
20260510055408 17 124 0.0 1.6 0.00 0.00 0.00 93 1014.9
20260510054901 17 125 0.0 1.6 0.00 0.00 0.00 93 1015.0
20260510054356 17 129 0.0 1.6 0.00 0.00 0.00 93 1015.0
20260510053851 17 129 0.0 1.6 0.00 0.00 0.00 93 1014.8
20260510053347 17 116 1.6 1.6 0.00 0.00 0.00 93 1014.6
20260510052844 17 130 0.0 0.0 0.00 0.00 0.00 93 1014.8
20260510052339 17 118 0.0 1.6 0.00 0.00 0.00 93 1015.1
20260510051836 17 117 0.0 1.6 0.00 0.00 0.00 93 1015.0
20260510051333 17 129 0.0 3.2 0.00 0.00 0.00 93 1014.9
20260510050830 17 55 0.0 1.6 0.00 0.00 0.00 93 1014.9
20260510050326 17 44 0.0 1.6 0.00 0.00 0.00 93 1015.1
20260510045823 17 37 0.0 1.6 0.00 0.18 0.18 93 1015.2
20260510045320 17 37 1.6 3.2 0.00 0.18 0.18 93 1015.0
20260510044817 17 89 0.0 1.6 0.00 0.18 0.18 93 1015.1
20260510044314 17 104 0.0 3.2 0.00 0.18 0.18 93 1014.9
20260510043810 17 117 1.6 3.2 0.00 0.18 0.18 93 1014.9
20260510043306 17 113 0.0 1.6 0.00 0.18 0.18 93 1014.8
20260510042804 17 93 1.6 1.6 0.00 0.18 0.18 93 1014.9
20260510042300 17 113 1.6 3.2 0.00 0.18 0.18 93 1014.9
20260510041756 17 110 1.6 3.2 0.00 0.18 0.18 92 1014.9
20260510041254 18 86 1.6 3.2 0.00 0.18 0.18 92 1015.2
20260510040751 18 66 0.0 3.2 0.00 0.18 0.18 92 1015.2
20260510040248 18 104 0.0 1.6 0.00 0.18 0.18 93 1015.2
20260510035743 18 104 0.0 1.6 0.00 0.18 0.18 92 1015.2
20260510035239 18 117 0.0 1.6 0.00 0.18 0.18 92 1015.3
20260510034734 18 113 0.0 1.6 0.00 0.18 0.18 92 1015.2
20260510034232 18 113 1.6 1.6 0.00 0.18 0.18 92 1015.2
20260510033729 18 103 0.0 1.6 0.00 0.18 0.18 92 1015.3
20260510033226 18 113 0.0 1.6 0.00 0.18 0.18 92 1015.3
20260510032722 18 50 0.0 0.0 0.00 0.18 0.18 92 1015.1
20260510032218 18 113 0.0 0.0 0.00 0.18 0.18 92 1015.2
20260510031713 18 113 0.0 1.6 0.00 0.18 0.18 92 1015.3
20260510031210 18 111 1.6 3.2 0.00 0.18 0.18 92 1015.3
20260510030704 18 117 0.0 1.6 0.00 0.18 0.18 92 1015.4
20260510030202 18 123 0.0 1.6 0.00 0.18 0.18 92 1015.1
20260510025659 18 120 0.0 1.6 0.00 0.18 0.18 92 1015.2
20260510025156 18 137 0.0 3.2 0.00 0.18 0.18 92 1014.9
20260510024653 18 104 0.0 1.6 0.00 0.18 0.18 92 1015.1
20260510024149 19 120 0.0 1.6 0.00 0.18 0.18 92 1015.0
20260510023645 19 128 1.6 3.2 0.00 0.18 0.18 92 1015.1
20260510023143 19 125 3.2 3.2 0.00 0.18 0.18 92 1015.0
20260510022643 19 107 0.0 1.6 0.00 0.18 0.18 92 1014.9
20260510022138 19 101 0.0 3.2 0.00 0.18 0.18 92 1014.6
20260510021634 19 122 0.0 3.2 0.00 0.18 0.18 92 1014.6
20260510021132 19 108 1.6 1.6 0.00 0.18 0.18 92 1014.5
20260510020626 19 96 1.6 3.2 0.00 0.18 0.18 91 1014.6
20260510020122 19 120 3.2 3.2 0.00 0.18 0.18 91 1014.5
20260510015618 19 106 1.6 3.2 0.00 0.18 0.18 91 1014.4
20260510015114 19 122 1.6 3.2 0.00 0.18 0.18 91 1014.5
20260510014610 19 104 3.2 3.2 0.00 0.18 0.18 91 1014.2
20260510014108 19 89 0.0 3.2 0.00 0.18 0.18 91 1014.2
20260510013608 20 128 1.6 3.2 0.00 0.18 0.18 90 1014.0
20260510013104 20 105 0.0 3.2 0.00 0.18 0.18 90 1013.8
20260510012603 20 111 1.6 3.2 0.00 0.18 0.18 90 1013.8
20260510012100 20 121 1.6 3.2 0.00 0.18 0.18 90 1013.7
20260510011559 20 141 1.6 3.2 0.00 0.18 0.18 90 1013.6
20260510011056 20 119 1.6 3.2 0.00 0.18 0.18 90 1013.4
20260510010552 20 124 3.2 3.2 0.00 0.18 0.18 89 1013.4
20260510010049 20 115 1.6 3.2 0.00 0.18 0.18 89 1013.4
20260510005544 20 137 3.2 4.8 0.00 0.18 0.18 89 1013.3
20260510005042 20 160 1.6 6.4 0.00 0.18 0.18 89 1013.3
20260510004540 20 132 1.6 4.8 0.00 0.18 0.18 88 1013.0
20260510004038 20 123 3.2 3.2 0.00 0.18 0.18 88 1013.2
20260510003534 20 124 3.2 3.2 0.00 0.18 0.18 88 1012.8
20260510003029 20 114 3.2 3.2 0.00 0.18 0.18 87 1013.0
20260510002525 20 108 1.6 3.2 0.00 0.18 0.18 87 1013.2
20260510002022 20 103 1.6 4.8 0.00 0.18 0.18 87 1013.2
20260510001520 20 114 1.6 4.8 0.00 0.18 0.18 87 1013.0
20260510001018 20 126 3.2 4.8 0.00 0.18 0.18 86 1013.0
20260510000513 20 130 1.6 3.2 0.00 0.18 0.18 86 1013.0
20260510000010 21 110 3.2 3.2 0.00 0.18 0.18 86 1012.8
20260509235507 21 113 1.6 3.2 0.00 0.18 0.18 86 1012.8
20260509235003 21 117 1.6 3.2 0.00 0.18 0.18 85 1012.7
20260509234500 21 147 0.0 1.6 0.00 0.18 0.18 85 1012.8
20260509233958 21 118 1.6 3.2 0.00 0.18 0.18 85 1012.5
20260509233455 21 133 0.0 3.2 0.00 0.18 0.18 85 1012.6
20260509232950 21 119 1.6 3.2 0.00 0.18 0.18 84 1012.4
20260509232449 21 116 1.6 3.2 0.00 0.18 0.18 84 1012.5
20260509231944 21 123 1.6 3.2 0.00 0.18 0.18 84 1012.4
20260509231441 21 154 1.6 3.2 0.00 0.18 0.18 83 1012.3
20260509230939 21 119 0.0 3.2 0.00 0.18 0.18 83 1012.2
20260509230436 21 133 3.2 3.2 0.00 0.18 0.18 82 1012.1
20260509225932 21 172 0.0 1.6 0.00 0.18 0.18 82 1012.4
20260509225428 21 129 0.0 0.0 0.00 0.18 0.18 82 1012.4
20260509224925 21 138 1.6 3.2 0.00 0.18 0.18 81 1012.4
20260509224420 22 135 0.0 1.6 0.00 0.18 0.18 81 1012.1
20260509223917 22 136 1.6 3.2 0.00 0.18 0.18 81 1012.2
20260509223414 22 170 3.2 4.8 0.00 0.18 0.18 80 1011.9
20260509222911 22 175 3.2 3.2 0.00 0.18 0.18 80 1012.0
20260509222407 22 153 1.6 3.2 0.00 0.18 0.18 79 1012.1
20260509221902 22 166 3.2 4.8 0.00 0.18 0.18 79 1012.1
20260509221400 22 133 1.6 3.2 0.00 0.18 0.18 78 1012.1
20260509220855 22 129 0.0 3.2 0.00 0.18 0.18 77 1012.1
20260509220351 22 141 1.6 3.2 0.00 0.18 0.18 76 1011.9
20260509215847 22 161 1.6 4.8 0.00 0.18 0.18 76 1011.9
20260509215344 22 103 0.0 3.2 0.00 0.18 0.18 75 1012.0
20260509214841 22 159 1.6 4.8 0.00 0.18 0.18 76 1012.2
20260509214338 22 167 1.6 4.8 0.00 0.18 0.18 74 1011.9
20260509213835 22 120 1.6 3.2 0.00 0.18 0.18 75 1011.9
20260509213330 22 104 0.0 1.6 0.00 0.18 0.18 74 1011.6
20260509212828 22 103 0.0 3.2 0.00 0.18 0.18 74 1011.7
20260509212326 22 186 0.0 3.2 0.00 0.18 0.18 74 1011.7
20260509211821 22 106 0.0 3.2 0.00 0.18 0.18 75 1011.7
20260509211317 22 104 0.0 3.2 0.00 0.18 0.18 75 1011.7
20260509210814 23 180 0.0 3.2 0.00 0.18 0.18 74 1011.5
20260509210312 23 189 3.2 4.8 0.00 0.18 0.18 74 1011.7
20260509205811 23 110 0.0 0.0 0.00 0.18 0.18 73 1011.4
20260509205307 23 106 0.0 3.2 0.00 0.18 0.18 73 1011.6
20260509204802 23 233 0.0 3.2 0.00 0.18 0.18 74 1011.9
20260509204259 23 89 0.0 0.0 0.00 0.18 0.18 76 1011.7
20260509203755 23 62 0.0 1.6 0.00 0.18 0.18 75 1011.6
20260509203253 23 76 1.6 3.2 0.00 0.18 0.18 75 1011.6